Norwood, MA

7:24 AM EST on February 21, 2018 (GMT -0500)
Norwood Memorial

Weather History for KOWD - October, 2011

Change the Weather History Date:

Thursday, October 27, 2011

  Actual Average Record
Temperature  
Mean Temperature 40 °F -  
Max Temperature 48 °F 56 °F 72 °F (2010)
Min Temperature 33 °F 33 °F 23 °F (2006)
Degree Days  
Heating Degree Days 24    
Moisture  
Dew Point 40 °F    
Average Humidity 88    
Maximum Humidity 93    
Minimum Humidity 80    
Precipitation  
Precipitation 0.94 in - - ()
Sea Level Pressure  
Sea Level Pressure 29.74 in    
Wind  
Wind Speed 5 mph (North)    
Max Wind Speed 14 mph    
Max Gust Speed 20 mph    
Visibility 5 miles    
Events Rain , Snow    
Averages and records for this station are not official NWS values.
T = Trace of Precipitation, MM = Missing Value Source: NWS Daily Summary

Daily Weather History Graph

Daily Weather History Graph

Search for Another Location

Airport or City:

Trip Planner

Search our weather history database for the weather conditions in past years. The results will help you decide how hot, cold, wet, or windy it might be!

Date:

Astronomy

Oct. 27, 2011 Rise Set
Actual Time 7:11 AM EDT 5:45 PM EDT
Civil Twilight 6:42 AM EDT 6:14 PM EDT
Nautical Twilight 6:09 AM EDT 6:46 PM EDT
Astronomical Twilight 5:37 AM EDT 7:19 PM EDT
Moon 8:12 AM EDT (10/27) 6:09 PM EDT (10/27)
Length of Visible Light 11h 31m
Length of Day
10h 34m
New Moon, 1% of the Moon is Illuminated
Oct 27
New Moon
Nov 2
First Quarter
Nov 10
Full
Nov 18
Last Quarter
Nov 25
New

Hourly Weather History & Observations

Time (EDT) Temp. Windchill Dew Point Humidity Pressure Visibility Wind Dir Wind Speed Gust Speed Precip Events Conditions
12:53 AM 48.0 °F - 43.0 °F 83% 29.76 in 10.0 mi Calm Calm - N/A   Overcast
1:35 AM 48.2 °F - 42.8 °F 82% 29.76 in 10.0 mi NNW 3.5 mph - N/A   Overcast
1:53 AM 48.0 °F - 42.1 °F 80% 29.75 in 10.0 mi Calm Calm - N/A   Overcast
2:10 AM 48.2 °F - 42.8 °F 82% 29.74 in 10.0 mi Calm Calm - N/A   Overcast
2:53 AM 48.0 °F - 43.0 °F 83% 29.73 in 10.0 mi Calm Calm - N/A   Overcast
4:24 AM 48.2 °F - 42.8 °F 82% 29.73 in 10.0 mi Variable 3.5 mph - N/A   Overcast
4:53 AM 48.0 °F - 43.0 °F 83% 29.73 in 10.0 mi NNW 3.5 mph - N/A   Overcast
5:36 AM 46.4 °F 44.3 °F 44.6 °F 93% 29.73 in 3.0 mi North 4.6 mph - 0.01 in Rain Light Rain
5:43 AM 46.4 °F 44.3 °F 44.6 °F 93% 29.73 in 3.0 mi North 4.6 mph - 0.01 in Rain Light Rain
5:53 AM 46.9 °F - 43.0 °F 86% 29.73 in 4.0 mi North 8.1 mph - 0.01 in Rain Light Rain
6:02 AM 46.4 °F 42.4 °F 42.8 °F 87% 29.73 in 3.0 mi North 8.1 mph - 0.01 in Rain Light Rain
6:23 AM 46.4 °F 42.4 °F 42.8 °F 87% 29.74 in 2.5 mi North 8.1 mph - 0.02 in Rain Light Rain
6:34 AM 46.4 °F 42.9 °F 42.8 °F 87% 29.75 in 4.0 mi North 6.9 mph - 0.03 in Rain Light Rain
6:53 AM 45.0 °F 40.6 °F 42.1 °F 90% 29.75 in 2.5 mi NNE 8.1 mph - 0.06 in Rain Light Rain
6:55 AM 44.6 °F 40.7 °F 42.8 °F 93% 29.75 in 3.0 mi NNE 6.9 mph - 0.00 in Rain Light Rain
7:06 AM 44.6 °F 41.4 °F 42.8 °F 93% 29.75 in 4.0 mi NNE 5.8 mph - 0.01 in Rain Light Rain
7:26 AM 44.6 °F 42.2 °F 42.8 °F 93% 29.76 in 5.0 mi North 4.6 mph - 0.04 in Rain Light Rain
7:53 AM 45.0 °F 42.6 °F 42.1 °F 90% 29.75 in 4.0 mi Variable 4.6 mph - 0.08 in Rain Rain
8:53 AM 46.9 °F - 44.1 °F 90% 29.75 in 4.0 mi NNE 5.8 mph - 0.10 in Rain Light Rain
9:39 AM 48.2 °F - 44.6 °F 87% 29.74 in 6.0 mi NE 9.2 mph 16.1 mph 0.06 in Rain Light Rain
9:53 AM 46.9 °F - 44.1 °F 90% 29.73 in 5.0 mi NE 10.4 mph - 0.07 in Rain Light Rain
10:53 AM 46.0 °F 41.4 °F 43.0 °F 89% 29.73 in 5.0 mi NNE 9.2 mph - 0.02 in Rain Light Rain
11:15 AM 46.4 °F 41.9 °F 42.8 °F 87% 29.74 in 2.0 mi NNE 9.2 mph - 0.03 in Rain Rain
11:24 AM 46.4 °F 41.9 °F 42.8 °F 87% 29.74 in 2.5 mi North 9.2 mph - 0.04 in Rain Light Rain
11:34 AM 46.4 °F 42.4 °F 42.8 °F 87% 29.73 in 4.0 mi NNE 8.1 mph - 0.04 in Rain Light Rain
11:53 AM 45.0 °F 41.2 °F 42.1 °F 90% 29.73 in 3.0 mi Variable 6.9 mph 16.1 mph 0.05 in Rain Light Rain
12:53 PM 45.0 °F 40.6 °F 42.1 °F 90% 29.68 in 7.0 mi NE 8.1 mph - 0.00 in Rain Light Rain
1:32 PM 46.4 °F 42.9 °F 42.8 °F 87% 29.67 in 2.0 mi NNE 6.9 mph - 0.01 in Rain Light Rain
1:53 PM 45.0 °F 41.2 °F 42.1 °F 90% 29.69 in 2.0 mi North 6.9 mph - 0.03 in Rain Light Rain
2:12 PM 44.6 °F 40.2 °F 41.0 °F 87% 29.67 in 1.8 mi NNE 8.1 mph - 0.03 in Rain Rain
2:21 PM 44.6 °F 39.7 °F 41.0 °F 87% 29.68 in 2.0 mi North 9.2 mph - 0.04 in Rain Light Rain
2:31 PM 44.6 °F 38.1 °F 41.0 °F 87% 29.68 in 3.0 mi NNE 13.8 mph 19.6 mph 0.04 in Rain Light Rain
2:35 PM 44.6 °F 40.2 °F 41.0 °F 87% 29.68 in 2.5 mi NNE 8.1 mph 19.6 mph 0.05 in Rain Rain
2:51 PM 44.6 °F 40.7 °F 41.0 °F 87% 29.69 in 3.0 mi North 6.9 mph - 0.07 in Rain Light Rain
3:00 PM 44.6 °F 40.2 °F 39.2 °F 81% 29.68 in 3.0 mi North 8.1 mph 16.1 mph 0.02 in Rain Rain
3:39 PM 42.8 °F 37.0 °F 39.2 °F 87% 29.71 in 4.0 mi North 10.4 mph - 0.10 in Rain Rain
3:53 PM 42.1 °F 37.1 °F 37.9 °F 85% 29.70 in 4.0 mi North 8.1 mph - 0.14 in Rain Rain
4:53 PM 41.0 °F 35.8 °F 37.0 °F 86% 29.68 in 8.0 mi NNE 8.1 mph - 0.04 in Rain Light Rain
5:44 PM 39.2 °F 33.6 °F 35.6 °F 87% 29.67 in 6.0 mi North 8.1 mph 16.1 mph 0.01 in Rain Light Rain
5:53 PM 39.9 °F 32.5 °F 36.0 °F 86% 29.68 in 6.0 mi North 12.7 mph 17.3 mph 0.01 in Rain Light Rain
7:16 PM 37.4 °F 30.8 °F 33.8 °F 87% 29.72 in 4.0 mi North 9.2 mph 17.3 mph 0.02 in Rain Rain
7:53 PM 37.0 °F 31.0 °F 34.0 °F 89% 29.73 in 5.0 mi NNE 8.1 mph - 0.08 in Rain Rain
8:25 PM 35.6 °F 31.7 °F 32.0 °F 87% 29.76 in 2.5 mi North 4.6 mph - 0.09 in Snow Light Snow
8:53 PM 34.0 °F - 32.0 °F 92% 29.78 in 2.5 mi Calm Calm - 0.14 in Snow Light Snow
9:06 PM 33.8 °F 30.8 °F 32.0 °F 93% 29.79 in 1.8 mi NNW 3.5 mph - 0.02 in Snow Light Snow
9:53 PM 34.0 °F 28.8 °F 32.0 °F 92% 29.81 in 1.8 mi North 5.8 mph - 0.08 in Snow Light Snow
10:02 PM 33.8 °F 27.7 °F 32.0 °F 93% 29.82 in 2.0 mi NNW 6.9 mph - 0.01 in Snow Light Snow
10:20 PM 33.8 °F 28.6 °F 32.0 °F 93% 29.82 in 3.0 mi North 5.8 mph - 0.02 in Snow Light Snow
10:53 PM 35.1 °F 27.9 °F 32.0 °F 89% 29.84 in 6.0 mi North 9.2 mph - 0.02 in   Overcast
11:38 PM 35.6 °F 29.2 °F 32.0 °F 87% 29.87 in 10.0 mi North 8.1 mph - 0.01 in   Overcast
11:53 PM 36.0 °F 29.6 °F 32.0 °F 86% 29.88 in 10.0 mi NNW 8.1 mph - 0.01 in   Overcast